Weather History for Lancaster, CA

Change the Weather History Date:

Tuesday, September 24, 2013

  Actual Average Record
Temperature  
Mean Temperature 69 °F 71 °F  
Max Temperature 90 °F 88 °F 100 °F (2002)
Min Temperature 47 °F 54 °F 39 °F (1993)
Degree Days  
Heating Degree Days 0    
Month to date heating degree days 2  
Since 1 July heating degree days 2  
Cooling Degree Days 4    
Month to date cooling degree days 308  
Year to date cooling degree days 2179  
Growing Degree Days 18 (Base 50)    
Moisture  
Dew Point 32 °F    
Average Humidity 31    
Maximum Humidity 50    
Minimum Humidity 11    
Precipitation  
Precipitation 0.00 in 0.01 in 0.05 in (1982)
Month to date precipitation T 0.11  
Year to date precipitation 1.12 5.21  
Since 1 July precipitation 0.02 0.30  
Snow  
Snow 0.00 in - 0.00 in ()
Month to date snowfall 0.0  
Since 1 July snowfall 0.0  
Since 1 September snowfall 0.0  
Snow Depth 0.00 in    
Sea Level Pressure  
Sea Level Pressure 29.89 in    
Wind  
Wind Speed 11 mph (WSW)    
Max Wind Speed 28 mph    
Max Gust Speed 35 mph    
Visibility 10 miles    
Events      
T = Trace of Precipitation, MM = Missing Value Source: NWS Daily Summary

Daily Weather History Graph

Daily Weather History Graph

Search for Another Location

Airport:

Trip Planner

Search our weather history database for the weather conditions in past years. The results will help you decide how hot, cold, wet, or windy it might be!

Date:

Astronomy

Sep. 24, 2013 Rise Set
Actual Time 6:42 AM PDT 6:46 PM PDT
Civil Twilight 6:17 AM PDT 7:11 PM PDT
Nautical Twilight 5:48 AM PDT 7:40 PM PDT
Astronomical Twilight 5:18 AM PDT 8:10 PM PDT
Moon 10:20 PM PDT (9/24) 11:49 AM PDT (9/24)
Length of Visible Light 12h 54m
Length of Day
12h 03m
Waning Gibbous, 72% of the Moon is Illuminated
Sep 24
Waning Gibbous
Sep 26
Last Quarter
Oct 4
New
Oct 11
First Quarter
Oct 18
Full

Hourly Weather History & Observations

Time (PDT) Temp. Dew Point Humidity Pressure Visibility Wind Dir Wind Speed Gust Speed Precip Events Conditions
12:56 AM 64.0 °F 35.1 °F 34% 29.93 in 10.0 mi SSW 4.6 mph - N/A   Clear
1:56 AM 63.0 °F 36.0 °F 37% 29.93 in 10.0 mi West 6.9 mph - N/A   Clear
2:56 AM 57.0 °F 37.9 °F 49% 29.93 in 10.0 mi Calm Calm - N/A   Clear
3:56 AM 55.0 °F 36.0 °F 49% 29.93 in 10.0 mi Calm Calm - N/A   Clear
4:56 AM 50.0 °F 32.0 °F 50% 29.93 in 10.0 mi West 4.6 mph - N/A   Clear
5:56 AM 52.0 °F 30.9 °F 45% 29.94 in 10.0 mi WSW 3.5 mph - N/A   Clear
6:56 AM 48.0 °F 30.9 °F 52% 29.95 in 10.0 mi NNW 6.9 mph - N/A   Clear
7:56 AM 57.0 °F 33.1 °F 40% 29.96 in 10.0 mi Calm Calm - N/A   Clear
8:56 AM 64.9 °F 34.0 °F 32% 29.97 in 10.0 mi Calm Calm - N/A   Clear
9:56 AM 77.0 °F 34.0 °F 21% 29.95 in 10.0 mi Calm Calm - N/A   Clear
10:56 AM 86.0 °F 30.0 °F 13% 29.92 in 10.0 mi SW 13.8 mph - N/A   Clear
11:56 AM 87.1 °F 28.9 °F 12% 29.89 in 10.0 mi WSW 12.7 mph 23.0 mph N/A   Clear
12:56 PM 89.1 °F 28.9 °F 12% 29.88 in 10.0 mi WSW 16.1 mph 24.2 mph N/A   Clear
1:56 PM 89.1 °F 30.0 °F 12% 29.85 in 10.0 mi SW 16.1 mph 24.2 mph N/A   Clear
2:56 PM 88.0 °F 30.0 °F 12% 29.84 in 10.0 mi SW 20.7 mph 29.9 mph N/A   Clear
3:56 PM 86.0 °F 28.9 °F 13% 29.83 in 10.0 mi SW 26.5 mph 32.2 mph N/A   Clear
4:56 PM 84.0 °F 27.0 °F 13% 29.84 in 10.0 mi SW 23.0 mph 33.4 mph N/A   Clear
5:56 PM 80.1 °F 28.0 °F 15% 29.85 in 10.0 mi SW 20.7 mph 34.5 mph N/A   Clear
6:56 PM 75.9 °F 28.0 °F 17% 29.86 in 10.0 mi SW 13.8 mph 23.0 mph N/A   Clear
7:56 PM 73.9 °F 30.9 °F 21% 29.86 in 10.0 mi SW 13.8 mph - N/A   Clear
8:56 PM 72.0 °F 35.1 °F 26% 29.86 in 10.0 mi SW 12.7 mph - N/A   Clear
9:56 PM 71.1 °F 35.1 °F 27% 29.84 in 10.0 mi SW 12.7 mph - N/A   Clear
10:56 PM 68.0 °F 37.0 °F 32% 29.83 in 10.0 mi WSW 15.0 mph - N/A   Clear
11:56 PM 68.0 °F 39.0 °F 35% 29.82 in 10.0 mi WSW 17.3 mph - N/A   Clear